Location: Bruch
(44.2051°N, 0.4120°E)
Time: 11:22:49
(UTC+00:00)

deb Chang Zheng 4 - Pass Details

Date: 29 November 2020
Orbit: 601 x 623 km, 98.6° (Epoch: 25 January)

Event Time Altitude Azimuth Distance (km) Brightness Sun altitude
Rises 05:25:05 0° 8° (N) 2,910 7.0 -18.6°
Reaches altitude 10° 05:27:20 10° 2° (N) 2,002 6.1 -18.2°
Maximum altitude 05:31:30 46° 289° (WNW) 840 3.8 -17.5°
Drops below altitude 10° 05:35:39 10° 217° (SW) 1,994 5.9 -16.8°
Sets 05:37:53 0° 211° (SSW) 2,897 6.8 -16.4°
